AQI (37)

Current Conditions for Foresthill, CA. Partly Cloudy, Dry   
Visibility: 10 miles
Cloud ht: 6591 ft
Space WX Alerts: WARNING:  Geomagnetic K-index of 4 expected ( Latest Alert ) - Issue Time: 2019 Nov 11 0959 UTC

  Summary / Temperature 

Current Temperature
71.2°F
21.8°C
(24/hr Ago)
70.3°F
(Apparent temp)
68.7°F
Comfortable
Heat Index
70.7°F 

71.2°F/ 21.8°C
 --- Virtual Temp: 73.1°F ---

 Temp Rate:

 24/hr Difference:

 Avg Running Temp:

 Todays High:

 Todays Low:

 Y-days High:

 Y-days Low:

 Todays HeatIdx:

 Y-days HeatIdx:

 Evapotranspiration:

+2.1°F/hr 

+0.90000000000001°F

70.4°F

71.6°F 12:41pm

55.6°F 4:31am

72.2°F 1:39pm

53.4°F 7:07am

71.0°F 12:46pm

71.1°F 1:39pm

0.050 in

115' Above Ground

 Temperature:

 6'AGL VRS 115'AGL:

 Avg Running Temp:

 Humidity:

 Todays High:

 Todays Low:

 Y-days High:

 Y-days Low:

70.0°F 

-1.2°F

69.6°F

35% 

71.0°F 10:03am

60.0°F 4:46am

70.0°F 1:22pm

57.0°F 6:18am

Temp & Humidity Graphs

  Wind 

Wind Speed

 1.0 mph

Gusting to

 5.0 mph

Wind from NNE

12°  NNE

Light air

 Avg speed:

 Wind Run:

 Peak Gust:

  1.0 mph 

4.0 miles

  5.0 mph 12:54am

  Almanac  

Moon age: 14 days,2 hours,40 minutes,99%

Full moon
99%
Illuminated
14 days in cycle

 Moonrise:

 Moonset:

 Sunrise:

 Sunset:

 Solar Noon:

4:49pm

5:38am

6:42am

4:53pm

11:48am

2min 7s less daylight tomorrow 

  Solar Radiation 

(Current Solar)
  336 W/m2 (70%)
(Todays High)
 536 W/m2@11:23am
Feels like: 77.9°F in the sun

Rain

 Rain Today:

 Rain Rate (/hr):

 Rain last hour:

 Rain Yesterday:

 This Month:

 Season Total:

24 Days Since Last Rain Day

0.00 in

0.000 in

0.00 in

0.00 in

0.00 in

2.30 in

Updated Time

Updated: 11/11/19  12:59pm

(Updated  sec ago)

Humidity & Barometer

 Humidity:

 Wetbulb:

 Dew Point:

 Barometer:

34% 

57.0°F 

41.4°F 

30.064 inHg 

 Baro Trend:  Steady 
Northern Calif
Preparedness
Fire 
Level 

    UV Index  

(Current UV)
2.1  Low
(Todays High) @ 11:17am
3.1   Medium

National Weather Service Forecast

Veterans
Day
Veterans Day: Mostly Sunny
Mostly Sunny
Tonight

Tonight: Partly Cloudy
Partly Cloudy
Tuesday

Tuesday: Partly Sunny
Partly Sunny
Tuesday
Night
Tuesday Night: Mostly Cloudy
Mostly Cloudy
Wednesday

Wednesday: Mostly Cloudy
Mostly Cloudy
Wednesday
Night
Wednesday Night: Mostly Cloudy
Mostly Cloudy
Hi 72 °F ↓ Lo 54 °F Hi 72 °F ↓ Lo 54 °F Hi 70 °F Lo 52 °F

Foresthill Probe 2 Stats  
Foresthill Probe 2: is located on Thomas Street
at 3000 feet. The main Foresthill Weather site
is located on Melody ln at the 2860 foot elevation

Calm
69.1°F
20.6°C
Temp Rate:
+0.3°F
1.0 mph
Gusting to
1.0 mph
(Humidity)
37%
Wind from WNW
294°  WNW
Updated: 11/11/19 - 13:00:46
 Todays High: 69.4°F 10:39
 Todays Low: 55.3°F 05:33
 Rain Today: 0.00 in
 Season Total: 2.29 in

Foresthill Wx: Monthly,Yearly, Highs and Lows 

Foresthill  
This Weather Data is coming from the main Foresthill
Weather site located on Melody ln at the 2860 foot
elevation
Not Foresthill Probe 2
Weather Data
Month
  High
Month
  Low
Year
High
Year
Low
Temp 78.4°F
11/8/19
46.7°F
11/1/19
92.2°F
8/16/19
24.5°F
2/18/19
Humidity 50%
11/4/19
14%
11/8/19
100%
1/9/19
10%
10/24/19
Heat Index 76.7°F
11/8/19
46.3°F
11/1/19
90.8°F
7/27/19
30.1°F
2/22/19
Wind Chill 78.4°F
11/8/19
43.0°F
11/1/19
92.2°F
8/16/19
11.5°F
2/11/19
Wind Gust 19 mph
11/5/19
0 mph
11/1/19
51 mph
10/27/19
0 mph
1/1/19
Barometer 30.24 in
11/8/19
29.97 in
11/6/19
30.54 in
1/23/19
29.37 in
2/14/19
ET 0.11 in
11/8/19
0.00 in
11/1/19
0.27 in
6/9/19
0.00 in
1/1/19
Dew Point 41.6°F
11/11/19
20.6°F
11/1/19
66.8°F
6/17/19
5.2°F
10/30/19
Visible Satellite Pacific Satellite US Radar Satellite Imagery Sacramento,CA.  (click to enlarge)
NWS Weather Forecast - Summary
Updated: Monday, November 11, 2019 - 3:00am PST
Locally breezy north to northeasterly winds today on top of record dry fuels
Current Interstate Highway Conditions for I-80 & US-50

[I 80: IN THE SAN FRANCISCO BAY AREA - SOLANO CO]
there is a dense fog advisory in effect at the san francisco-oakland bay bridge /in san francisco/ (san francisco,alameda co) - motorists are advised to drive with caution

[I 80: IN THE NORTHERN CALIFORNIA AREA & SIERRA NEVADA]
no traffic restrictions are reported for this area.

[US 50: IN THE SACRAMENTO VALLEY & THE LAKE TAHOE BASIN]
no traffic restrictions are reported for this area.
NWS Weather Forecast: Veterans Day and Tonight (Updated: Mon, 11-Nov-2019 1:41am PST)
Veterans
Day
Veterans Day: Mostly Sunny
Mostly Sunny

Hi 72 °F ↓
NWS forecast: Mostly sunny. High near 72, with temperatures falling to around 64 in the afternoon. West wind 5 to 8 mph.
Tonight

Tonight: Partly Cloudy
Partly Cloudy

Lo 54 °F
NWS forecast: Partly cloudy, with a low around 54. East wind 2 to 7 mph.
YR.NO 10 Day Weather forecast
Last update: 11/11/2019 @ 05:36
Next update: 11/11/2019 @ 11:47
Provided by: 22
      Temperature Precipitation Pressure Wind  
Today
11/11/2019
11:00 12:00 73°F   30.04 inHg Light air from west 3 mph
  12:00 18:00 72°F   30.04 inHg Light breeze from west 5 mph
  18:00 00:00 59°F   30.05 inHg Light air from east 2 mph
    (Click to enlarge)
meteogram

    Forecast for next 9 days

      Temperature Precip Pressure Wind  
Tuesday
11/12/2019
00:00 06:00 50°F   30.09 inHg Light breeze from east 7 mph
  06:00 12:00 45°F   30.08 inHg Light breeze from east-northeast 4 mph
  12:00 18:00 72°F   30.08 inHg Light breeze from west-southwest 4 mph
  18:00 00:00 61°F   30.03 inHg Light air from east-northeast 3 mph
      Temperature Precip Pressure Wind  
Wednesday
11/13/2019
00:00 06:00 46°F   30.03 inHg Light breeze from east 4 mph
  06:00 12:00 45°F   30.00 inHg Light breeze from east 6 mph
  10:00 16:00 70°F   30.01 inHg Light air from south 3 mph
  16:00 22:00 64°F   29.96 inHg Light air from west-northwest 1 mph
  22:00 04:00 45°F   29.98 inHg Light air from east 3 mph
      Temperature Precip Pressure Wind  
Thursday
11/14/2019
04:00 10:00 48°F   29.97 inHg Light breeze from east 5 mph
  10:00 16:00 66°F   30.02 inHg Light breeze from south-southwest 4 mph
  16:00 22:00 59°F   30.02 inHg Light air from west-southwest 3 mph
  22:00 04:00 48°F   30.08 inHg Light air from east-northeast 2 mph
      Temperature Precip Pressure Wind  
Friday
11/15/2019
04:00 10:00 46°F   30.09 inHg Light air from east 1 mph
  10:00 16:00 59°F   30.14 inHg Light air from west 2 mph
  16:00 22:00 57°F   30.11 inHg Light air from west 2 mph
  22:00 04:00 45°F   30.13 inHg Light air from east-northeast 2 mph
      Temperature Precip Pressure Wind  
Saturday
11/16/2019
04:00 10:00 37°F   30.08 inHg Light breeze from east 4 mph
  10:00 16:00 64°F   30.08 inHg Calm from west-northwest 0 mph
  16:00 22:00 61°F   30.04 inHg Light air from west-southwest 2 mph
  22:00 04:00 46°F   30.07 inHg Light breeze from east 7 mph
      Temperature Precip Pressure Wind  
Sunday
11/17/2019
04:00 10:00 45°F   30.09 inHg Light breeze from east-northeast 7 mph
  10:00 16:00 64°F   30.12 inHg Light air from southwest 2 mph
  16:00 22:00 61°F   30.07 inHg Light air from west 2 mph
  22:00 04:00 46°F   30.08 inHg Light air from east 3 mph
      Temperature Precip Pressure Wind  
Monday
11/18/2019
04:00 10:00 43°F   30.02 inHg Light air from east 3 mph
  10:00 16:00 63°F   30.07 inHg Light air from west-northwest 3 mph
  16:00 22:00 61°F   30.03 inHg Light breeze from west 4 mph
  22:00 04:00 48°F   30.08 inHg Gentle breeze from northeast 8 mph
      Temperature Precip Pressure Wind  
Tuesday
11/19/2019
04:00 10:00 54°F   29.98 inHg Gentle breeze from east-northeast 11 mph
  10:00 16:00 61°F   30.02 inHg Moderate breeze from east-northeast 14 mph
  16:00 22:00 59°F   30.00 inHg Gentle breeze from east-northeast 10 mph
  22:00 04:00 50°F   30.05 inHg Gentle breeze from east 11 mph
      Temperature Precip Pressure Wind  
Wednesday
11/20/2019
04:00 10:00 48°F   30.04 inHg Gentle breeze from east-northeast 10 mph
How Close Are We To this Month's Temperature Record ?
Updated Monday, Nov 11, 2019- 1:00:01 PM

Current Temperature: 71.2°F

November's High: Temperature Record 78.4°F - Set on Fri, Nov 8, 2019 - 12:04:54 PM
We are currently 7.2°F Less than this Month's record High

November's Low: Temperature Record 28.9°F - Set on Thu, Nov 26, 2015 - 6:22:00 AM
We are currently 42.3°F More than this Month's record Low

Weather History For Monday, November 11, 2019


On this Day - In Weather History ...
Data courtesy of weatherforyou.com
powered by Cumulus v1.9.3 (1059)
Ambient Weather VWS v14.00
Top Website Map Copyright © 2007 - 2019 Foresthillweather.com Never base important decisions on this or any weather information obtained from the Internet